Katherine — WDD5676 — position and weather

sailwx.info

Track history (hours):
 
Tides and Currents Weather Stations Pressure Air Temp Water Temp Dewpoint Dewpoint Depression Visibility Wind Speed Wind Dir Waves Ship Positions

Katherine

Owner: Weeks Marine, Inc., Cranford, NJ. More information available from US FCC via Universal Licensing System and Coast Guard Vessel Documentation Center.

Last reported at 2017-Dec-15 04:30 UTC. Time now 2017-Dec-15 04:31 UTC.
Position N 40°41' W 074°05'.

Length 31 m; draft 4.7 m.

Type: Towing. MMSI: 367161940.

Date/timePositionNaut miles runAvg speedWind from/ knotsBaromVisibWave heightAir tempDewpointWater temp
2017-Dec-15 04:30N 40°41' W 074°05'0 0.0
2017-Dec-15 04:00N 40°41' W 074°05'0 0.0
2017-Dec-15 02:30N 40°41' W 074°05'0 0.0
2017-Dec-15 01:01N 40°41' W 074°05'0 0.0
2017-Dec-15 00:30N 40°41' W 074°05'12 2.0
2017-Dec-14 18:28N 40°30' W 073°57'43 1.0
2017-Dec-12 23:25N 39°48' W 074°00'2 4.9
2017-Dec-12 22:58N 39°45' W 074°00'2 4.8
2017-Dec-12 22:27N 39°43' W 074°01'2 5.2
2017-Dec-12 22:00N 39°41' W 074°02'3 5.3
2017-Dec-12 21:28N 39°38' W 074°03'2 4.8
2017-Dec-12 21:00N 39°36' W 074°03'  
2017-Dec-10 03:10N 34°39' W 076°23'1 4.7
2017-Dec-10 02:55N 34°38' W 076°24'2 4.6
2017-Dec-10 02:25N 34°36' W 076°23'13 2.2
2017-Dec-09 20:20N 34°31' W 076°38'2 6.3
2017-Dec-09 20:00N 34°32' W 076°40'3 6.4
2017-Dec-09 19:30N 34°34' W 076°44'3 6.4
2017-Dec-09 18:59N 34°36' W 076°46'3 6.1
2017-Dec-09 18:30N 34°38' W 076°49'2 3.0
2017-Dec-09 18:00N 34°39' W 076°51'2 4.0
2017-Dec-09 17:30N 34°38' W 076°48'2 4.5
2017-Dec-09 17:00N 34°40' W 076°46'2 4.2
2017-Dec-09 16:30N 34°40' W 076°49'2 4.8
2017-Dec-09 16:00N 34°40' W 076°52'2 4.5
2017-Dec-09 15:30N 34°40' W 076°54'2 4.5
2017-Dec-09 14:59N 34°39' W 076°57'2 1.4
2017-Dec-09 13:09N 34°37' W 076°57'1 4.6
2017-Dec-09 12:59N 34°37' W 076°56'2 4.7
2017-Dec-09 12:30N 34°38' W 076°53'2 4.8
2017-Dec-09 12:00N 34°38' W 076°51'2 3.3
2017-Dec-09 11:30N 34°40' W 076°52'2 4.8
2017-Dec-09 11:00N 34°39' W 076°55'2 4.7
2017-Dec-09 10:30N 34°39' W 076°58'3 2.8
2017-Dec-09 09:29N 34°36' W 076°59'2 5.1
2017-Dec-09 09:00N 34°37' W 076°57'3 5.1
2017-Dec-09 08:30N 34°38' W 076°54'2 4.8
2017-Dec-09 08:00N 34°39' W 076°51'2 4.0
2017-Dec-09 07:30N 34°39' W 076°53'2 4.6
2017-Dec-09 07:00N 34°39' W 076°56'4 3.1
2017-Dec-09 05:41N 34°36' W 076°59'3 4.8
2017-Dec-09 05:08N 34°37' W 076°56'1 4.8
2017-Dec-09 05:00N 34°37' W 076°55'2 4.8
2017-Dec-09 04:30N 34°38' W 076°53'3 4.8
2017-Dec-09 03:59N 34°39' W 076°50'3 3.2
2017-Dec-09 02:54N 34°38' W 076°54'5 3.0
2017-Dec-09 01:25N 34°34' W 076°55'4 4.6
2017-Dec-09 00:26N 34°37' W 076°52'2 5.1
2017-Dec-09 00:00N 34°39' W 076°50'2 3.1
2017-Dec-08 23:30N 34°39' W 076°52'4 3.7
2017-Dec-08 22:32N 34°37' W 076°56'0 3.6
2017-Dec-08 22:29N 34°37' W 076°56'1 0.6
2017-Dec-08 20:58N 34°37' W 076°57'2 4.9
2017-Dec-08 20:30N 34°38' W 076°54'2 4.9
2017-Dec-08 20:00N 34°40' W 076°52'2 3.3
2017-Dec-08 19:30N 34°39' W 076°50'2 3.8
2017-Dec-08 19:00N 34°38' W 076°51'2 4.0
2017-Dec-08 18:30N 34°38' W 076°54'2 1.0
2017-Dec-08 16:30N 34°37' W 076°56'2 4.9
2017-Dec-08 16:00N 34°38' W 076°53'2 5.0
2017-Dec-08 15:30N 34°38' W 076°50'3 5.0
2017-Dec-08 15:00N 34°39' W 076°47'2 3.6
2017-Dec-08 14:30N 34°38' W 076°45'2 4.1
2017-Dec-08 14:00N 34°37' W 076°47'2 4.5
2017-Dec-08 13:30N 34°36' W 076°50'2 4.4
2017-Dec-08 13:00N 34°36' W 076°53'  
Track history (hours):
 
Tides and Currents Weather Stations Pressure Air Temp Water Temp Dewpoint Dewpoint Depression Visibility Wind Speed Wind Dir Waves Ship Positions

Katherine

Owner: Weeks Marine, Inc., Cranford, NJ. More information available from US FCC via Universal Licensing System and Coast Guard Vessel Documentation Center.

Last reported at 2017-Dec-15 04:30 UTC. Time now 2017-Dec-15 04:31 UTC.
Position N 40°41' W 074°05'.

Length 31 m; draft 4.7 m.

Type: Towing. MMSI: 367161940.

Date/timePositionNaut miles runAvg speedWind from/ knotsBaromVisibWave heightAir tempDewpointWater temp
2017-Dec-15 04:30N 40°41' W 074°05'0 0.0
2017-Dec-15 04:00N 40°41' W 074°05'0 0.0
2017-Dec-15 02:30N 40°41' W 074°05'0 0.0
2017-Dec-15 01:01N 40°41' W 074°05'0 0.0
2017-Dec-15 00:30N 40°41' W 074°05'12 2.0
2017-Dec-14 18:28N 40°30' W 073°57'43 1.0
2017-Dec-12 23:25N 39°48' W 074°00'2 4.9
2017-Dec-12 22:58N 39°45' W 074°00'2 4.8
2017-Dec-12 22:27N 39°43' W 074°01'2 5.2
2017-Dec-12 22:00N 39°41' W 074°02'3 5.3
2017-Dec-12 21:28N 39°38' W 074°03'2 4.8
2017-Dec-12 21:00N 39°36' W 074°03'  
2017-Dec-10 03:10N 34°39' W 076°23'1 4.7
2017-Dec-10 02:55N 34°38' W 076°24'2 4.6
2017-Dec-10 02:25N 34°36' W 076°23'13 2.2
2017-Dec-09 20:20N 34°31' W 076°38'2 6.3
2017-Dec-09 20:00N 34°32' W 076°40'3 6.4
2017-Dec-09 19:30N 34°34' W 076°44'3 6.4
2017-Dec-09 18:59N 34°36' W 076°46'3 6.1
2017-Dec-09 18:30N 34°38' W 076°49'2 3.0
2017-Dec-09 18:00N 34°39' W 076°51'2 4.0
2017-Dec-09 17:30N 34°38' W 076°48'2 4.5
2017-Dec-09 17:00N 34°40' W 076°46'2 4.2
2017-Dec-09 16:30N 34°40' W 076°49'2 4.8
2017-Dec-09 16:00N 34°40' W 076°52'2 4.5
2017-Dec-09 15:30N 34°40' W 076°54'2 4.5
2017-Dec-09 14:59N 34°39' W 076°57'2 1.4
2017-Dec-09 13:09N 34°37' W 076°57'1 4.6
2017-Dec-09 12:59N 34°37' W 076°56'2 4.7
2017-Dec-09 12:30N 34°38' W 076°53'2 4.8
2017-Dec-09 12:00N 34°38' W 076°51'2 3.3
2017-Dec-09 11:30N 34°40' W 076°52'2 4.8
2017-Dec-09 11:00N 34°39' W 076°55'2 4.7
2017-Dec-09 10:30N 34°39' W 076°58'3 2.8
2017-Dec-09 09:29N 34°36' W 076°59'2 5.1
2017-Dec-09 09:00N 34°37' W 076°57'3 5.1
2017-Dec-09 08:30N 34°38' W 076°54'2 4.8
2017-Dec-09 08:00N 34°39' W 076°51'2 4.0
2017-Dec-09 07:30N 34°39' W 076°53'2 4.6
2017-Dec-09 07:00N 34°39' W 076°56'4 3.1
2017-Dec-09 05:41N 34°36' W 076°59'3 4.8
2017-Dec-09 05:08N 34°37' W 076°56'1 4.8
2017-Dec-09 05:00N 34°37' W 076°55'2 4.8
2017-Dec-09 04:30N 34°38' W 076°53'3 4.8
2017-Dec-09 03:59N 34°39' W 076°50'3 3.2
2017-Dec-09 02:54N 34°38' W 076°54'5 3.0
2017-Dec-09 01:25N 34°34' W 076°55'4 4.6
2017-Dec-09 00:26N 34°37' W 076°52'2 5.1
2017-Dec-09 00:00N 34°39' W 076°50'2 3.1
2017-Dec-08 23:30N 34°39' W 076°52'4 3.7
2017-Dec-08 22:32N 34°37' W 076°56'0 3.6
2017-Dec-08 22:29N 34°37' W 076°56'1 0.6
2017-Dec-08 20:58N 34°37' W 076°57'2 4.9
2017-Dec-08 20:30N 34°38' W 076°54'2 4.9
2017-Dec-08 20:00N 34°40' W 076°52'2 3.3
2017-Dec-08 19:30N 34°39' W 076°50'2 3.8
2017-Dec-08 19:00N 34°38' W 076°51'2 4.0
2017-Dec-08 18:30N 34°38' W 076°54'2 1.0
2017-Dec-08 16:30N 34°37' W 076°56'2 4.9
2017-Dec-08 16:00N 34°38' W 076°53'2 5.0
2017-Dec-08 15:30N 34°38' W 076°50'3 5.0
2017-Dec-08 15:00N 34°39' W 076°47'2 3.6
2017-Dec-08 14:30N 34°38' W 076°45'2 4.1
2017-Dec-08 14:00N 34°37' W 076°47'2 4.5
2017-Dec-08 13:30N 34°36' W 076°50'2 4.4
2017-Dec-08 13:00N 34°36' W 076°53'  

Dump ship's entire track history